This demonstration page uses our WeatherBlox Daily Observations layout. Learn more.

Left ArrowRight Arrow

Hourly Observations for August 7, 2022

Temp ( °F °C ) Dew Point ( °F °C ) Humidity (%) Winds ( mph kmh ) Pressure ( in mb ) Visibility ( mi km ) Precip ( " mm )
12:15 am 00:15 Clear 77 25 72 22 83 83 S 5 7 30.21 1023 10 16 0.00 0.00
12:35 am 00:35 Clear 75 24 72 22 89 89 S 6 9 30.22 1023 10 16 0.00 0.00
12:55 am 00:55 Clear 73 23 70 21 89 89 SSW 5 7 30.22 1023 10 16 0.00 0.00
1:15 am 01:15 Clear 73 23 70 21 89 89 S 5 7 30.22 1023 10 16 0.00 0.00
1:35 am 01:35 Clear 73 23 70 21 89 89 S 6 9 30.22 1023 10 16 0.00 0.00
1:55 am 01:55 Clear 73 23 70 21 89 89 SSW 3 6 30.22 1023 10 16 0.00 0.00
2:15 am 02:15 Clear 73 23 70 21 89 89 S 6 9 30.22 1023 10 16 0.00 0.00
2:35 am 02:35 Clear 73 23 70 21 89 89 SW 3 6 30.21 1023 10 16 0.00 0.00
2:55 am 02:55 Clear 73 23 70 21 89 89 S 6 9 30.21 1023 10 16 0.00 0.00
3:15 am 03:15 Clear 72 22 70 21 94 94 Calm 30.20 1023 10 16 0.00 0.00
3:35 am 03:35 Clear 72 22 70 21 94 94 Calm 30.20 1023 10 16 0.00 0.00
3:55 am 03:55 Clear 72 22 70 21 94 94 Calm 30.20 1023 10 16 0.00 0.00
4:15 am 04:15 Clear 72 22 70 21 94 94 Calm 30.20 1023 10 16 0.00 0.00
4:35 am 04:35 Clear 72 22 70 21 94 94 Calm 30.20 1023 10 16 0.00 0.00
4:55 am 04:55 Clear 72 22 72 22 100 100 Calm 30.20 1023 10 16 0.00 0.00
5:15 am 05:15 Clear 72 22 72 22 100 100 Calm 30.20 1023 10 16 0.00 0.00
5:35 am 05:35 Clear 72 22 70 21 94 94 Calm 30.20 1023 10 16 0.00 0.00
5:55 am 05:55 Clear 72 22 70 21 94 94 Calm 30.21 1023 10 16 0.00 0.00
6:15 am 06:15 Clear 72 22 70 21 94 94 Calm 30.21 1023 10 16 0.00 0.00
6:35 am 06:35 Sunny 72 22 72 22 100 100 S 3 6 30.22 1023 10 16 0.00 0.00
6:55 am 06:55 Sunny 72 22 72 22 100 100 Calm 30.22 1023 10 16 0.00 0.00
7:15 am 07:15 Sunny 72 22 72 22 100 100 S 3 6 30.23 1024 10 16 0.00 0.00
7:35 am 07:35 Sunny 72 22 72 22 100 100 S 6 9 30.23 1024 10 16 0.00 0.00
7:55 am 07:55 Sunny 72 22 72 22 100 100 S 3 6 30.23 1024 10 16 0.00 0.00
8:15 am 08:15 Sunny 73 23 72 22 94 94 S 3 6 30.23 1024 10 16 0.00 0.00
8:35 am 08:35 Sunny 75 24 72 22 89 89 S 5 7 30.23 1024 10 16 0.00 0.00
8:55 am 08:55 Sunny 77 25 73 23 89 89 SSW 3 6 30.22 1024 10 16 0.00 0.00
9:15 am 09:15 Sunny 79 26 73 23 84 84 S 5 7 30.22 1023 10 16 0.00 0.00
9:35 am 09:35 Sunny 81 27 73 23 79 79 SW 6 9 30.21 1023 10 16 0.00 0.00
9:55 am 09:55 Sunny 81 27 73 23 79 79 SW 5 7 30.21 1023 10 16 0.00 0.00
10:15 am 10:15 Sunny 82 28 73 23 74 74 SSW 5 7 30.21 1023 10 16 0.00 0.00
10:35 am 10:35 Sunny 82 28 73 23 74 74 SSW 5 7 30.21 1023 10 16 0.00 0.00
10:55 am 10:55 Sunny 84 29 75 24 74 74 SSW 8 13 30.21 1023 10 16 0.00 0.00
11:15 am 11:15 Sunny 86 30 75 24 70 70 WSW 6 9 30.20 1023 10 16 0.00 0.00
11:35 am 11:35 Sunny 88 31 75 24 66 66 S 6 9 30.19 1022 10 16 0.00 0.00
11:55 am 11:55 Sunny 88 31 75 24 66 66 SSE 7 11 30.19 1022 10 16 0.00 0.00
12:15 pm 12:15 Sunny 88 31 77 25 70 70 SSW 8 13 30.18 1022 10 16 0.00 0.00
12:35 pm 12:35 Partly Cloudy 90 32 77 25 67 67 SSW 9 15 30.18 1022 10 16 0.00 0.00
12:55 pm 12:55 Mostly Cloudy 90 32 75 24 63 63 S 9 15 30.17 1022 10 16 0.00 0.00
1:15 pm 13:15 Partly Cloudy 90 32 77 25 67 67 SW 8 13 30.17 1022 10 16 0.00 0.00
1:35 pm 13:35 Partly Cloudy 91 33 77 25 63 63 SSW 9 15 30.16 1021 10 16 0.00 0.00
1:55 pm 13:55 Mostly Cloudy 91 33 77 25 63 63 SSW 7 11 30.15 1021 10 16 0.00 0.00
2:15 pm 14:15 Mostly Cloudy 91 33 77 25 63 63 WSW 7 11 30.14 1021 10 16 0.00 0.00
2:35 pm 14:35 Partly Cloudy 91 33 75 24 59 59 S 10 17 30.13 1020 10 16 0.00 0.00
2:55 pm 14:55 Partly Cloudy 91 33 75 24 59 59 S 9 15 30.12 1020 10 16 0.00 0.00
3:15 pm 15:15 Partly Cloudy 91 33 75 24 59 59 SSW 9 15 30.12 1020 10 16 0.00 0.00
3:35 pm 15:35 Partly Cloudy 91 33 77 25 63 63 SW 9 15 30.11 1020 10 16 0.00 0.00
3:55 pm 15:55 Partly Cloudy 90 32 75 24 63 63 SSW 8 13 30.12 1020 10 16 0.00 0.00
4:15 pm 16:15 Partly Cloudy 90 32 75 24 63 63 SSW 12 19 30.11 1019 10 16 0.00 0.00
4:35 pm 16:35 Partly Cloudy 91 33 75 24 59 59 SW 10 17 30.09 1019 10 16 0.00 0.00
4:55 pm 16:55 Sunny 91 33 75 24 59 59 SW 8 13 30.09 1019 10 16 0.00 0.00
5:15 pm 17:15 Sunny 91 33 75 24 59 59 SW 12 19 30.09 1019 10 16 0.00 0.00
5:35 pm 17:35 Sunny 90 32 73 23 59 59 SW 13 20 30.09 1019 10 16 0.00 0.00
5:55 pm 17:55 Sunny 90 32 75 24 63 63 SW 8 13 30.09 1019 10 16 0.00 0.00
6:15 pm 18:15 Sunny 90 32 75 24 63 63 SW 10 17 30.09 1019 10 16 0.00 0.00
6:35 pm 18:35 Sunny 90 32 75 24 63 63 SSW 9 15 30.10 1019 10 16 0.00 0.00
6:55 pm 18:55 Sunny 88 31 75 24 66 66 SSW 9 15 30.09 1019 10 16 0.00 0.00
7:15 pm 19:15 Sunny 88 31 75 24 66 66 SSW 7 11 30.11 1020 10 16 0.00 0.00
7:35 pm 19:35 Sunny 86 30 75 24 70 70 SSW 5 7 30.11 1020 10 16 0.00 0.00
7:55 pm 19:55 Sunny 86 30 75 24 70 70 S 7 11 30.11 1020 10 16 0.00 0.00
8:15 pm 20:15 Sunny 84 29 75 24 74 74 SSW 6 9 30.11 1020 10 16 0.00 0.00
8:35 pm 20:35 Clear 82 28 75 24 79 79 SSW 3 6 30.11 1020 10 16 0.00 0.00
8:55 pm 20:55 Partly Cloudy 82 28 75 24 79 79 Calm 30.11 1020 10 16 0.00 0.00
9:15 pm 21:15 Clear 82 28 75 24 79 79 S 5 7 30.11 1020 10 16 0.00 0.00
9:35 pm 21:35 Clear 82 28 75 24 79 79 S 5 7 30.11 1020 10 16 0.00 0.00
9:55 pm 21:55 Partly Cloudy 82 28 75 24 79 79 SSW 6 9 30.12 1020 10 16 0.00 0.00
10:15 pm 22:15 Clear 81 27 75 24 84 84 SSW 7 11 30.12 1020 10 16 0.00 0.00
10:35 pm 22:35 Partly Cloudy 81 27 75 24 84 84 SSW 6 9 30.12 1020 10 16 0.00 0.00
10:55 pm 22:55 Partly Cloudy 81 27 75 24 84 84 SSW 7 11 30.11 1020 10 16 0.00 0.00
11:15 pm 23:15 Clear 81 27 75 24 84 84 SSW 5 7 30.11 1020 10 16 0.00 0.00
11:35 pm 23:35 Clear 79 26 75 24 89 89 SW 3 6 30.12 1020 10 16 0.00 0.00
11:55 pm 23:55 Clear 79 26 75 24 89 89 SSW 5 7 30.11 1020 10 16 0.00 0.00

Powered by AerisWeather